Location: Malvern Link
(52.1333°N, 2.3000°W)
Time: 15:19:59
(UTC+00:00)

Exosat Rocket - Pass Details

Date: 18 September 2020
Orbit: 761 x 2514 km, 72.3° (Epoch: 22 October)

Event Time Altitude Azimuth Distance (km) Brightness Sun altitude
Rises 20:59:35 0° 209° (SSW) 3,583 6.9 -24.1°
Reaches altitude 10° 21:02:13 10° 210° (SSW) 2,501 6.1 -24.4°
Maximum altitude 21:07:39 83° 299° (WNW) 787 3.5 -25.0°
Drops below altitude 10° 21:12:40 10° 27° (NNE) 2,321 6.1 -25.6°
Sets 21:15:03 0° 29° (NNE) 3,305 6.9 -25.9°
